N482QX KDCA-KORF

Flight info

Callsign N482QX
Flight time N/A
Altitude 13000
Route NATNL8 WHINO COLIN OUTLA1
Aircraft C414/L-SBDFGRY/S

Departure

Time N/A
Airport Ronald Reagan Washington National Airport (KDCA)

Arrival

Time 2026-05-03 20:32
Airport Norfolk International Airport (KORF)
Time Latitude Longitude Altitude Speed Heading
2026-05-03 20:15 37.42878 -76.10876 1992 ft 219 kts 134°
2026-05-03 20:15 37.41821 -76.09465 1992 ft 219 kts 134°
2026-05-03 20:15 37.40788 -76.08087 1993 ft 219 kts 134°
2026-05-03 20:15 37.39757 -76.06711 1990 ft 211 kts 134°
2026-05-03 20:16 37.38783 -76.05409 1982 ft 199 kts 134°
2026-05-03 20:16 37.37850 -76.04167 1979 ft 192 kts 134°
2026-05-03 20:16 37.36946 -76.02962 1981 ft 187 kts 134°
2026-05-03 20:16 37.36061 -76.01785 1978 ft 184 kts 134°
2026-05-03 20:17 37.35193 -76.00612 1978 ft 182 kts 135°
2026-05-03 20:17 37.34147 -75.99797 1981 ft 176 kts 171°
2026-05-03 20:17 37.32937 -75.99714 2018 ft 176 kts 185°
2026-05-03 20:17 37.31724 -75.99707 2014 ft 173 kts 185°
2026-05-03 20:18 37.30520 -75.99684 2012 ft 173 kts 183°
2026-05-03 20:18 37.29315 -75.99639 2014 ft 173 kts 183°
2026-05-03 20:18 37.28140 -75.99513 2019 ft 165 kts 175°
2026-05-03 20:18 37.26978 -75.99529 2009 ft 173 kts 192°
2026-05-03 20:19 37.25728 -75.99631 2015 ft 184 kts 184°
2026-05-03 20:19 37.24425 -75.99605 2019 ft 190 kts 182°
2026-05-03 20:19 37.23084 -75.99550 2029 ft 194 kts 182°
2026-05-03 20:19 37.21719 -75.99515 2023 ft 198 kts 181°
2026-05-03 20:20 37.20334 -75.99467 2026 ft 199 kts 183°
2026-05-03 20:20 37.18944 -75.99456 2016 ft 202 kts 184°
2026-05-03 20:20 37.17549 -75.99436 2008 ft 199 kts 182°
2026-05-03 20:20 37.16165 -75.99378 2009 ft 199 kts 181°
2026-05-03 20:21 37.14801 -75.99339 2010 ft 198 kts 182°
2026-05-03 20:21 37.13418 -75.99324 2011 ft 199 kts 183°
2026-05-03 20:21 37.12032 -75.99303 2008 ft 199 kts 183°
2026-05-03 20:21 37.10652 -75.99275 2011 ft 199 kts 182°
2026-05-03 20:22 37.09268 -75.99246 2010 ft 199 kts 183°
2026-05-03 20:22 37.07885 -75.99219 2009 ft 198 kts 182°
2026-05-03 20:22 37.06503 -75.99192 2012 ft 199 kts 182°
2026-05-03 20:22 37.05119 -75.99164 2013 ft 198 kts 182°
2026-05-03 20:23 37.03737 -75.99136 2014 ft 198 kts 183°
2026-05-03 20:23 37.02358 -75.99107 2012 ft 198 kts 182°
2026-05-03 20:23 37.00977 -75.99078 2005 ft 199 kts 182°
2026-05-03 20:23 36.99593 -75.99051 2005 ft 199 kts 182°
2026-05-03 20:24 36.98209 -75.99023 2005 ft 199 kts 182°
2026-05-03 20:24 36.96820 -75.98994 2004 ft 200 kts 182°
2026-05-03 20:24 36.95431 -75.98968 2006 ft 200 kts 182°
2026-05-03 20:24 36.94039 -75.98941 2005 ft 200 kts 182°
2026-05-03 20:25 36.92647 -75.98909 2006 ft 200 kts 182°
2026-05-03 20:25 36.91258 -75.98882 2006 ft 200 kts 182°
2026-05-03 20:25 36.89854 -75.98850 1996 ft 203 kts 182°
2026-05-03 20:25 36.88429 -75.98826 2013 ft 207 kts 181°
2026-05-03 20:26 36.86996 -75.98741 1990 ft 204 kts 186°
2026-05-03 20:26 36.85691 -75.99264 1997 ft 195 kts 215°
2026-05-03 20:26 36.84621 -76.00303 1993 ft 194 kts 223°
2026-05-03 20:26 36.83560 -76.01350 1997 ft 195 kts 222°
2026-05-03 20:27 36.82511 -76.02379 2001 ft 192 kts 222°
2026-05-03 20:27 36.81437 -76.03396 1995 ft 194 kts 224°
2026-05-03 20:27 36.80680 -76.04738 1960 ft 191 kts 252°
2026-05-03 20:27 36.80522 -76.06399 1580 ft 189 kts 282°
2026-05-03 20:28 36.81047 -76.07766 1585 ft 172 kts 310°
2026-05-03 20:28 36.81837 -76.08834 1577 ft 163 kts 312°
2026-05-03 20:28 36.82560 -76.09896 1575 ft 158 kts 309°
2026-05-03 20:28 36.83238 -76.10961 1577 ft 154 kts 309°
2026-05-03 20:29 36.83867 -76.11957 1570 ft 142 kts 308°
2026-05-03 20:29 36.84446 -76.12879 1425 ft 128 kts 308°
2026-05-03 20:29 36.84963 -76.13704 1261 ft 113 kts 308°
2026-05-03 20:29 36.85405 -76.14403 1119 ft 94 kts 308°
2026-05-03 20:30 36.85778 -76.15002 1000 ft 83 kts 308°
2026-05-03 20:30 36.86122 -76.15550 890 ft 77 kts 308°
2026-05-03 20:30 36.86443 -76.16069 797 ft 78 kts 307°
2026-05-03 20:30 36.86806 -76.16640 711 ft 89 kts 308°
2026-05-03 20:31 36.87208 -76.17278 601 ft 97 kts 309°
2026-05-03 20:31 36.87635 -76.17955 469 ft 100 kts 308°
2026-05-03 20:31 36.88075 -76.18636 338 ft 101 kts 304°
2026-05-03 20:31 36.88498 -76.19332 227 ft 99 kts 306°
2026-05-03 20:32 36.88936 -76.19997 82 ft 101 kts 304°
2026-05-03 20:32 36.89357 -76.20654 55 ft 89 kts 310°
2026-05-03 20:32 36.89738 -76.21189 39 ft 65 kts 305°
2026-05-03 20:32 36.89711 -76.21142 30 ft 0 kts 304°